[[{"header":{"parameterUnit":"m.s-1","parameterCategory":1,"la1":30.2991,"la2":30.254,"lo1":-89.0895,"lo2":-89.0444,"dy":0.0017,"dx":0.0017,"nx":28,"ny":28,"refTime":"2023-10-29T21:00:00:Z","depth":0,"parameterNumber":2,"parameterNumberName":"U-component_of_WINDS"},"data":[0,0,0,0,0,0,0,0,0,0,0,0,0,0,0,0,0,0,0,0,0,0,0,0,0,0,0,0,0,0,0,0,0,0,0,0,0,0,0,0,0,0,0,0,0,0,0,0,0,0,0,0,0,0,0,0,0,0,-3.2632,-3.2632,0,-3.2661,-3.2661,-3.2662,-3.2632,-3.263,-3.2629,-3.2628,-3.2661,-3.2663,-3.2665,0,0,0,0,0,0,0,0,0,0,0,0,0,-3.2557,-3.2558,-3.2632,-3.2632,-3.2633,-3.2661,-3.2661,-3.2662,-3.2632,-3.263,-3.2629,-3.2628,-3.266,-3.2663,-3.2665,0,0,0,0,0,0,0,0,0,0,0,0,0,-3.2588,-3.2559,-3.2632,-3.2621,-3.262,-3.2661,-3.2661,-3.2662,-3.2632,-3.263,-3.2629,-3.2627,-3.266,-3.2663,-3.2666,-3.2719,0,0,-3.2675,-3.2676,0,0,0,0,0,0,0,0,-3.2586,-3.2591,-3.2622,-3.2622,-3.2621,-3.2641,-3.2647,-3.2681,-3.2633,-3.2628,-3.2628,-3.2626,-3.2656,-3.2659,-3.2669,-3.2721,-3.2722,-3.2675,-3.2677,-3.2678,-3.2679,0,0,0,0,0,0,0,-3.2584,-3.2589,-3.2643,-3.2623,-3.2622,-3.2617,-3.2619,-3.2653,-3.2652,-3.2628,-3.2626,-3.263,-3.2655,-3.2666,-3.2669,-3.2723,-3.2675,-3.2677,-3.2679,-3.268,-3.2824,-3.2826,0,0,0,0,0,0,-3.2582,-3.2588,-3.2642,-3.2644,-3.2599,-3.262,-3.2622,-3.2636,-3.2651,-3.2651,-3.2631,-3.2628,-3.2662,-3.2666,-3.267,-3.2735,-3.2678,-3.2681,-3.2682,-3.2822,-3.2825,-3.2827,0,0,0,0,0,0,-3.2581,-3.2588,-3.2641,-3.2615,-3.2622,-3.2623,-3.2639,-3.2638,-3.2648,-3.2653,-3.2653,-3.2641,-3.266,-3.2666,-3.2708,-3.2736,-3.2682,-3.2685,-3.282,-3.2823,-3.2826,-3.2864,0,0,0,0,0,0,-3.2579,-3.2587,-3.2605,-3.2616,-3.2623,-3.2676,-3.264,-3.264,-3.2653,-3.2649,-3.2663,-3.2664,-3.2659,-3.2704,-3.2711,-3.2739,-3.2687,-3.2817,-3.2821,-3.2825,-3.2861,-3.2868,-3.2875,0,0,0,0,0,-3.2576,-3.2615,-3.2606,-3.2613,-3.2646,-3.2678,-3.2682,-3.2675,-3.2655,-3.2675,-3.2679,-3.2663,-3.2733,-3.2708,-3.2716,-3.2745,-3.2815,-3.282,-3.2825,-3.2857,-3.2867,-3.2875,0,0,0,0,0,0,-3.2607,-3.2616,-3.2606,-3.265,-3.2663,-3.2673,-3.2696,-3.2685,-3.2705,-3.2701,-3.2694,-3.2697,-3.2742,-3.2748,-3.2721,-3.28,-3.2771,-3.2777,-3.2793,-3.2802,-3.2809,-3.2806,-3.2689,0,0,0,0,0,-3.262,-3.2643,-3.265,-3.2688,-3.2695,-3.2695,-3.2709,-3.2703,-3.2717,-3.2723,-3.273,-3.2745,-3.2771,-3.2788,-3.2811,-3.2863,-3.2867,-3.2888,-3.2895,-3.2901,-3.2906,-3.2937,-3.2946,-3.2842,-3.2842,-3.2842,0,0,-3.2644,-3.2652,-3.2667,-3.2694,-3.2704,-3.273,-3.27,-3.2728,-3.2748,-3.2727,-3.2766,-3.2774,-3.2791,-3.2839,-3.286,-3.2845,-3.2937,-3.2907,-3.2912,-3.2913,-3.2942,-3.2952,-3.2961,-3.2845,-3.2845,-3.2844,0,0,-3.2702,-3.271,-3.2743,-3.2754,-3.277,-3.2771,-3.2779,-3.2791,-3.2795,-3.2834,-3.282,-3.2846,-3.2889,-3.2903,-3.2915,-3.2985,-3.2972,-3.2994,-3.303,-3.306,-3.3069,-3.3076,-3.3101,-3.311,-3.2999,-3.2999,-3.2999,0,-3.2731,-3.2768,-3.2762,-3.2792,-3.2805,-3.2789,-3.2824,-3.2836,-3.2859,-3.2869,-3.2853,-3.291,-3.292,-3.2972,-3.299,-3.3001,-3.3011,-3.299,-3.3068,-3.3075,-3.3082,-3.3106,-3.3115,-3.3002,-3.3002,-3.3001,-3.3001,0,-3.2803,-3.283,-3.2855,-3.2877,-3.2894,-3.2927,-3.2928,-3.2947,-3.2942,-3.2945,-3.2988,-3.3001,-3.3028,-3.3041,-3.3036,-3.3093,-3.3084,-3.3068,-3.3038,-3.3094,-3.3116,-3.3126,-3.3005,-3.3004,-3.3004,-3.3003,0,0,-3.2875,-3.2898,-3.2907,-3.2918,-3.2937,-3.2958,-3.2993,-3.3019,-3.3036,-3.3055,-3.3084,-3.3124,-3.3111,-3.3125,-3.3123,-3.3149,-3.3205,-3.3131,-3.3131,-3.3143,-3.3271,-3.3281,-3.3292,-3.3199,-3.32,-3.3202,-3.327,0,-3.2933,-3.2989,-3.2988,-3.3041,-3.3067,-3.3055,-3.3085,-3.3102,-3.3108,-3.3133,-3.3141,-3.3169,-3.3149,-3.3158,-3.3184,-3.3193,-3.3231,-3.3188,-3.3227,-3.3228,-3.3219,-3.3304,-3.3313,-3.3376,-3.3279,-3.328,-3.3281,0,-3.3006,-3.3028,-3.3083,-3.3102,-3.3113,-3.3139,-3.3165,-3.3189,-3.3209,-3.3212,-3.3231,-3.3226,-3.3264,-3.3236,-3.3289,-3.326,-3.3277,-3.3285,-3.3287,-3.3288,-3.3255,-3.3306,-3.3396,-3.3405,-3.3295,-3.3294,-3.3293,0,-3.3053,-3.3096,-3.3136,-3.3146,-3.3168,-3.3188,-3.3198,-3.3217,-3.3234,-3.3259,-3.327,-3.33,-3.3315,-3.3339,-3.3343,-3.3322,-3.3397,-3.3369,-3.3402,-3.3402,-3.3415,-3.3413,-3.3508,-3.3429,-3.3429,-3.3429,-3.3429,0,-3.3116,-3.3151,-3.3157,-3.3181,-3.3221,-3.3221,-3.3262,-3.3271,-3.3289,-3.3317,-3.331,-3.3337,-3.3341,-3.3371,-3.3375,-3.3419,-3.3427,-3.3431,-3.3431,-3.343,-3.343,-3.3439,-3.3434,-3.3432,-3.3431,-3.3431,-3.343,0,-3.3173,-3.3179,-3.3221,-3.324,-3.3246,-3.3275,-3.3292,-3.3317,-3.3324,-3.336,-3.3369,-3.3381,-3.3415,-3.3423,-3.3463,-3.3466,-3.3519,-3.3516,-3.3511,-3.351,-3.3542,-3.3538,-3.3644,-3.3658,-3.3572,-3.3573,-3.3574,0,-3.3211,-3.3238,-3.326,-3.3278,-3.329,-3.3318,-3.3337,-3.334,-3.336,-3.3388,-3.341,-3.3444,-3.347,-3.3526,-3.354,-3.3573,-3.3569,-3.3605,-3.3574,-3.3573,-3.3569,-3.3566,-3.357,-3.3609,-3.361,-3.3611,-3.3611,0,-3.3279,-3.3281,-3.3307,-3.3335,-3.3357,-3.3379,-3.34,-3.3416,-3.3424,-3.3447,-3.3481,-3.3502,-3.3545,-3.358,-3.3613,-3.3627,-3.3621,-3.3622,-3.3631,-3.3628,-3.3624,-3.3626,-3.3525,-3.3618,-3.3617,-3.3617,-3.3617,-3.3616,-3.3326,-3.335,-3.3371,-3.3401,-3.3418,-3.3439,-3.3464,-3.3476,-3.3504,-3.3538,-3.354,-3.3578,-3.3604,-3.3648,-3.3664,-3.3696,-3.3686,-3.3699,-3.3702,-3.3705,-3.3707,-3.3622,-3.3703,-3.3703,-3.3703,-3.3703,-3.3702,0,-3.3393,-3.3406,-3.3434,-3.3465,-3.3489,-3.3483,-3.3508,-3.3529,-3.3562,-3.3586,-3.3613,-3.3655,-3.369,-3.3709,-3.3744,-3.3766,-3.3765,-3.3775,-3.3772,-3.3776,-3.3715,-3.3703,-3.3776,-3.3776,-3.3776,-3.3776,-3.3776,-3.3776,-3.343,-3.347,-3.3476,-3.3527,-3.3541,-3.3577,-3.3592,-3.3613,-3.3632,-3.3679,-3.3707,-3.372,-3.3742,-3.378,-3.3813,-3.3818,-3.3831,-3.3843,-3.3846,-3.3788,-3.378,-3.3773,-3.3761,-3.3846,-3.3846,-3.3905,-3.3905,-3.3906]},{"header":{"parameterUnit":"m.s-1","parameterCategory":1,"la1":30.2991,"la2":30.254,"lo1":-89.0895,"lo2":-89.0444,"dy":0.0017,"dx":0.0017,"nx":28,"ny":28,"refTime":"2023-10-29T21:00:00:Z","depth":0,"parameterNumber":3,"parameterNumberName":"V-component_of_WINDS"},"data":[0,0,0,0,0,0,0,0,0,0,0,0,0,0,0,0,0,0,0,0,0,0,0,0,0,0,0,0,0,0,0,0,0,0,0,0,0,0,0,0,0,0,0,0,0,0,0,0,0,0,0,0,0,0,0,0,0,0,1.9486,1.9485,0,1.9446,1.9446,1.9445,1.9508,1.951,1.9513,1.9515,1.9469,1.9466,1.9463,0,0,0,0,0,0,0,0,0,0,0,0,0,1.9614,1.9611,1.9486,1.9485,1.9485,1.9446,1.9446,1.9445,1.9508,1.9511,1.9513,1.9516,1.947,1.9467,1.9463,0,0,0,0,0,0,0,0,0,0,0,0,0,1.9564,1.961,1.9486,1.9512,1.9513,1.9446,1.9445,1.9445,1.9507,1.9511,1.9514,1.9517,1.9472,1.9467,1.9462,1.9366,0,0,1.9447,1.9445,0,0,0,0,0,0,0,0,1.9567,1.956,1.9508,1.951,1.9512,1.9486,1.9474,1.9418,1.9506,1.9509,1.9515,1.9519,1.9472,1.9467,1.9452,1.9364,1.9362,1.9447,1.9444,1.9442,1.944,0,0,0,0,0,0,0,1.9571,1.9562,1.947,1.9507,1.9509,1.9524,1.9521,1.9464,1.9472,1.9509,1.9514,1.9509,1.9473,1.9457,1.9452,1.9362,1.9447,1.9443,1.944,1.9438,1.9196,1.9192,0,0,0,0,0,0,1.9571,1.9564,1.9471,1.9469,1.9548,1.952,1.9516,1.9491,1.9473,1.9474,1.9506,1.9512,1.9464,1.9457,1.945,1.9338,1.9442,1.9437,1.9435,1.9199,1.9195,1.9191,0,0,0,0,0,0,1.9574,1.9562,1.9473,1.9518,1.9507,1.9514,1.9485,1.9488,1.9472,1.9471,1.9472,1.9488,1.9466,1.9457,1.9388,1.9338,1.9435,1.9431,1.9203,1.9198,1.9193,1.9113,0,0,0,0,0,0,1.9577,1.9563,1.9527,1.9516,1.9505,1.9411,1.9482,1.9485,1.9464,1.9471,1.9454,1.9454,1.9468,1.9395,1.9383,1.9333,1.9427,1.9208,1.9201,1.9195,1.912,1.9105,1.9093,0,0,0,0,0,1.9582,1.9504,1.9525,1.9513,1.946,1.9408,1.9401,1.942,1.9459,1.9423,1.9423,1.9455,1.9346,1.9387,1.9374,1.9322,1.9211,1.9203,1.9195,1.9126,1.9108,1.9093,0,0,0,0,0,0,1.9506,1.9503,1.9526,1.9443,1.9426,1.9419,1.9373,1.94,1.937,1.9377,1.9401,1.9396,1.9322,1.9315,1.9361,1.923,1.9285,1.9274,1.9236,1.922,1.9207,1.9209,1.9423,0,0,0,0,0,1.948,1.9439,1.9439,1.9365,1.9356,1.9366,1.9344,1.936,1.9342,1.9335,1.9329,1.931,1.9272,1.9245,1.921,1.912,1.9118,1.9078,1.9065,1.9054,1.9043,1.8997,1.898,1.9165,1.9165,1.9165,0,0,1.9425,1.9419,1.9391,1.935,1.9339,1.9295,1.9359,1.931,1.9278,1.9327,1.9261,1.9257,1.9237,1.9158,1.9122,1.915,1.8992,1.9043,1.9035,1.9031,1.8987,1.897,1.8954,1.916,1.9161,1.9162,0,0,1.9303,1.9294,1.9233,1.9221,1.9204,1.9212,1.9197,1.9187,1.9187,1.9122,1.9159,1.9121,1.9054,1.9039,1.9022,1.8898,1.8927,1.8886,1.8815,1.877,1.8755,1.8742,1.8699,1.8683,1.8876,1.8876,1.8876,0,1.9236,1.9173,1.9198,1.9147,1.9128,1.9174,1.9112,1.9099,1.907,1.9056,1.9088,1.9007,1.8996,1.8914,1.8885,1.887,1.8854,1.8887,1.8755,1.8743,1.8731,1.869,1.8673,1.8871,1.8872,1.8872,1.8873,0,1.9093,1.9049,1.9002,1.8975,1.8952,1.8895,1.8911,1.8884,1.8904,1.8908,1.8843,1.8832,1.8797,1.8779,1.8795,1.87,1.8718,1.8752,1.8808,1.8708,1.867,1.8654,1.8864,1.8866,1.8867,1.8869,0,0,1.8919,1.891,1.8892,1.8882,1.8867,1.8833,1.878,1.8747,1.8724,1.8704,1.8659,1.8604,1.8636,1.8618,1.8634,1.8594,1.8498,1.8634,1.8634,1.8609,1.8393,1.8367,1.8348,1.8518,1.8515,1.8512,1.8395,0,1.8798,1.8707,1.8729,1.8639,1.86,1.8644,1.8598,1.8584,1.8587,1.8554,1.8558,1.8518,1.8564,1.8553,1.8516,1.8517,1.8455,1.8526,1.8476,1.8474,1.8479,1.8328,1.8299,1.8188,1.838,1.8377,1.8375,0,1.8644,1.862,1.8527,1.8522,1.8506,1.8464,1.8437,1.8405,1.839,1.8396,1.8377,1.8402,1.8349,1.8407,1.8335,1.8384,1.8365,1.8363,1.8359,1.8354,1.8418,1.8318,1.8154,1.8137,1.8352,1.8354,1.8355,0,1.8527,1.8472,1.8409,1.8399,1.8391,1.8361,1.8356,1.8346,1.8326,1.8302,1.8289,1.8259,1.8242,1.8218,1.8234,1.8274,1.816,1.8218,1.8162,1.8162,1.8135,1.8136,1.7964,1.8123,1.8124,1.8124,1.8124,0,1.8389,1.833,1.8357,1.8319,1.8255,1.8281,1.8217,1.8217,1.8208,1.817,1.8206,1.817,1.8194,1.8159,1.8172,1.8111,1.8103,1.8106,1.811,1.8102,1.8102,1.8089,1.8097,1.812,1.8121,1.8121,1.8122,0,1.8247,1.8262,1.8198,1.8197,1.8196,1.8149,1.8148,1.8112,1.812,1.8072,1.8062,1.8074,1.8035,1.805,1.8008,1.8017,1.794,1.7954,1.7945,1.7948,1.7892,1.7897,1.7705,1.7681,1.7856,1.7854,1.7853,0,1.8157,1.8114,1.811,1.8088,1.8081,1.8045,1.8026,1.8051,1.8029,1.8011,1.7978,1.7943,1.7917,1.7854,1.7858,1.7827,1.7841,1.7776,1.7836,1.7831,1.784,1.7842,1.7838,1.7763,1.7761,1.7759,1.7758,0,1.7997,1.8008,1.7979,1.7954,1.793,1.791,1.7894,1.7874,1.7898,1.7872,1.7834,1.7814,1.7774,1.7739,1.7712,1.7707,1.7736,1.774,1.7725,1.7716,1.7713,1.7715,1.7911,1.7743,1.7745,1.7746,1.7747,1.7747,1.7879,1.7843,1.7835,1.7803,1.7794,1.7778,1.7746,1.7751,1.772,1.7691,1.7707,1.7664,1.7653,1.762,1.7611,1.7578,1.7603,1.7581,1.7576,1.757,1.7563,1.772,1.7573,1.7573,1.7574,1.7574,1.7574,0,1.7721,1.7719,1.7689,1.7667,1.7641,1.7674,1.7658,1.7634,1.7596,1.7584,1.7559,1.7517,1.7484,1.7487,1.7457,1.743,1.7442,1.7421,1.7423,1.7421,1.7542,1.7558,1.7411,1.7411,1.7411,1.7411,1.7411,1.7411,1.7636,1.7578,1.7588,1.7526,1.7524,1.7484,1.7472,1.7458,1.7449,1.7401,1.7375,1.7378,1.7373,1.7343,1.7315,1.7317,1.7304,1.7278,1.7284,1.7396,1.7413,1.7428,1.7443,1.7275,1.7274,1.7166,1.7165,1.7165]}]]